Radiation Dose measured at exhaust stack monitor of Fukushima Daiichi Nuclear Power Station
Date,Time,Unit 5 6 shared exhaust cylinders,Wind Direction,Wind Velocity(m/s)
2024/05/03,00:00,3.5,south,6.9
2024/05/03,00:10,3.6,south-southwest,6.9
2024/05/03,00:20,3.6,south,7.5
2024/05/03,00:30,3.6,south,7.4
2024/05/03,00:40,3.5,south,7.5
2024/05/03,00:50,3.7,south-southwest,7.2
2024/05/03,01:00,3.7,south-southwest,6.7
2024/05/03,01:10,3.6,south-southwest,6.1
2024/05/03,01:20,3.8,south-southwest,6.1
2024/05/03,01:30,3.6,south-southwest,5.1
2024/05/03,01:40,3.6,south-southwest,4.1
2024/05/03,01:50,3.5,south-southwest,3.8
2024/05/03,02:00,3.8,south,3.2
2024/05/03,02:10,3.6,south-southwest,2.2
2024/05/03,02:20,3.6,south,2.6
2024/05/03,02:30,3.6,south,2.6
2024/05/03,02:40,3.6,south,3.0
2024/05/03,02:50,3.5,south,3.0
2024/05/03,03:00,3.6,south,2.2
2024/05/03,03:10,3.6,south,1.7
2024/05/03,03:20,3.5,south-southeast,1.5
2024/05/03,03:30,3.8,south-southeast,2.2
2024/05/03,03:40,3.7,south-southeast,3.2
2024/05/03,03:50,3.7,south,3.7
2024/05/03,04:00,3.4,south-southwest,3.6
2024/05/03,04:10,3.7,south-southwest,4.5
2024/05/03,04:20,3.5,south-southwest,6.0
2024/05/03,04:30,3.4,south-southwest,7.9
2024/05/03,04:40,3.6,south-southwest,7.2
2024/05/03,04:50,3.6,south-southwest,6.3
2024/05/03,05:00,3.6,south-southwest,6.1
2024/05/03,05:10,3.7,south-southwest,5.7
2024/05/03,05:20,3.6,south-southwest,5.6
2024/05/03,05:30,3.5,south-southwest,5.1
2024/05/03,05:40,3.7,south-southwest,5.3
2024/05/03,05:50,3.8,south-southwest,4.8
2024/05/03,06:00,3.7,southwest,3.4
2024/05/03,06:10,3.5,southwest,2.0
2024/05/03,06:20,3.6,southwest,1.7
2024/05/03,06:30,3.5,south-southwest,1.5
2024/05/03,06:40,3.6,south,1.7
2024/05/03,06:50,3.5,southwest,2.3
2024/05/03,07:00,3.6,south,1.4
2024/05/03,07:10,3.5,south-southeast,2.0
2024/05/03,07:20,3.7,southeast,1.7
2024/05/03,07:30,3.6,east,1.7
2024/05/03,07:40,3.7,east,2.6
2024/05/03,07:50,3.5,east-southeast,2.9
2024/05/03,08:00,3.5,east-southeast,3.4
2024/05/03,08:10,3.7,east-southeast,2.0
2024/05/03,08:20,3.5,southeast,1.2
2024/05/03,08:30,3.6,southeast,2.2
2024/05/03,08:40,3.6,southeast,3.2
2024/05/03,08:50,3.6,south-southeast,2.0
2024/05/03,09:00,3.6,southeast,3.0
2024/05/03,09:10,3.7,south-southeast,3.9
2024/05/03,09:20,3.6,south-southeast,3.1
2024/05/03,09:30,3.7,southeast,3.6
2024/05/03,09:40,3.6,southeast,3.6
2024/05/03,09:50,3.7,southeast,2.9
2024/05/03,10:00,3.6,southeast,4.7
2024/05/03,10:10,3.8,southeast,4.4
2024/05/03,10:20,3.6,southeast,3.7
2024/05/03,10:30,3.7,southeast,3.9
2024/05/03,10:40,3.7,southeast,4.4
2024/05/03,10:50,3.7,southeast,3.4
2024/05/03,11:00,3.6,southeast,4.7
2024/05/03,11:10,3.5,southeast,4.6
2024/05/03,11:20,3.6,southeast,5.5
2024/05/03,11:30,3.6,southeast,5.3
2024/05/03,11:40,3.6,south-southeast,7.0
2024/05/03,11:50,3.6,south-southeast,7.2
2024/05/03,12:00,3.5,south-southeast,8.0
2024/05/03,12:10,3.8,south-southeast,8.8
2024/05/03,12:20,3.6,south-southeast,9.4
2024/05/03,12:30,3.6,south-southeast,9.8
2024/05/03,12:40,3.5,south-southeast,9.1
2024/05/03,12:50,3.7,south-southeast,9.3
2024/05/03,13:00,3.5,south-southeast,9.7
2024/05/03,13:10,3.6,south-southeast,11.3
2024/05/03,13:20,3.7,south,10.8
2024/05/03,13:30,3.6,south,9.6
2024/05/03,13:40,3.7,south-southeast,11.3
2024/05/03,13:50,3.7,south,9.6
2024/05/03,14:00,3.7,south,11.3
2024/05/03,14:10,3.7,south,10.3
2024/05/03,14:20,3.6,south,9.7
2024/05/03,14:30,3.7,south,7.6
2024/05/03,14:40,3.6,south,6.3
2024/05/03,14:50,3.8,south,7.2
2024/05/03,15:00,3.7,south,7.7
2024/05/03,15:10,3.8,south,8.1
2024/05/03,15:20,3.6,south,8.0
2024/05/03,15:30,3.6,south,8.8
2024/05/03,15:40,3.7,south,8.6
2024/05/03,15:50,3.5,south,8.3
2024/05/03,16:00,3.6,south,6.4
2024/05/03,16:10,3.6,south,6.1
2024/05/03,16:20,3.7,south,5.9
2024/05/03,16:30,3.7,south,6.3
2024/05/03,16:40,3.6,south,5.6
2024/05/03,16:50,3.5,south,6.0
2024/05/03,17:00,3.8,south,5.3
2024/05/03,17:10,3.6,south,5.3
2024/05/03,17:20,3.6,south,4.9
2024/05/03,17:30,3.6,south-southwest,3.8
2024/05/03,17:40,3.7,south-southwest,3.3
2024/05/03,17:50,3.7,west,1.5
2024/05/03,18:00,3.5,northwest,2.3
2024/05/03,18:10,3.6,northwest,1.5
2024/05/03,18:20,3.6,north,2.6
2024/05/03,18:30,3.7,north-northeast,3.4
2024/05/03,18:40,3.7,north,5.4
2024/05/03,18:50,3.6,north,5.7
2024/05/03,19:00,3.7,north,5.1
2024/05/03,19:10,3.8,north,3.7
2024/05/03,19:20,3.7,north,5.8
2024/05/03,19:30,3.8,north,5.4
2024/05/03,19:40,3.5,north,5.1
2024/05/03,19:50,3.6,north-northwest,4.2
2024/05/03,20:00,3.5,north,3.2
2024/05/03,20:10,3.5,north,2.6
2024/05/03,20:20,3.6,north,2.2
2024/05/03,20:30,3.6,north-northwest,1.5
2024/05/03,20:40,3.7,west,1.2
2024/05/03,20:50,3.5,southwest,0.9
2024/05/03,21:00,3.6,south-southwest,1.7
2024/05/03,21:10,3.8,west-southwest,1.4
2024/05/03,21:20,3.7,west-northwest,2.8
2024/05/03,21:30,3.9,north-northwest,3.5
2024/05/03,21:40,3.7,northwest,2.3
2024/05/03,21:50,3.7,west-northwest,1.2
2024/05/03,22:00,3.6,west-southwest,1.2
2024/05/03,22:10,3.7,west,3.0
2024/05/03,22:20,3.6,west-northwest,2.2
2024/05/03,22:30,3.7,west-northwest,2.6
2024/05/03,22:40,3.7,west-northwest,1.5
2024/05/03,22:50,3.7,west-northwest,4.2
2024/05/03,23:00,3.6,northwest,4.6
2024/05/03,23:10,3.7,northwest,6.1
2024/05/03,23:20,3.6,northwest,7.2
2024/05/03,23:30,3.6,northwest,5.7
2024/05/03,23:40,3.6,northwest,6.5
2024/05/03,23:50,3.6,west-northwest,5.1
